Location: Fenile
(46.0500°N, 9.5500°E)
Time: 17:18:01
(UTC+00:00)

Cosmos 1486 Rocket - Pass Details

Date: 03 March 2021
Orbit: 758 x 784 km, 74.1° (Epoch: 11 April)

Event Time Altitude Azimuth Distance (km) Brightness Sun altitude
Rises 17:52:22 0° 338° (NNW) 3,255 7.5 -7.9°
Reaches altitude 10° 17:54:45 10° 340° (NNW) 2,328 6.8 -8.4°
Maximum altitude 18:00:04 83° 69° (ENE) 789 4.0 -9.3°
Drops below altitude 10° 18:05:22 10° 157° (SSE) 2,328 6.3 -10.2°
Sets 18:07:44 0° 158° (SSE) 3,254 7.0 -10.6°
